SR2ATJ-13 Weather Reports


time (UTC)temp
F
wind
direction
speed
knots
gust
knots
rain 1hr
in
rain 24hr
in
rain mn
in
humidity
%
barometer
mb
20260508033503 44 0.0 0.0 0.00 0.00 0.00 79 1018.7
20260508032503 45 0.0 0.0 0.00 0.00 0.00 79 1018.7
20260508031503 45 0.0 0.0 0.00 0.00 0.00 78 1018.7
20260508030503 45 0.0 0.0 0.00 0.00 0.00 78 1018.6
20260508025503 45 0.0 0.0 0.00 0.00 0.00 78 1018.5
20260508024503 45 0.0 0.0 0.00 0.00 0.00 77 1018.6
20260508023502 45 0.0 0.0 0.00 0.00 0.00 77 1018.7
20260508022505 45 0.0 0.0 0.00 0.00 0.00 76 1018.6
20260508020503 45 0.0 0.0 0.00 0.00 0.00 76 1018.4
20260508015502 45 0.0 0.0 0.00 0.00 0.00 75 1018.4
20260508014502 45 0.0 0.0 0.00 0.00 0.00 75 1018.3
20260508013503 45 0.0 0.0 0.00 0.00 0.00 75 1018.2
20260508012503 45 0.0 0.0 0.00 0.00 0.00 74 1018.2
20260508010502 45 0.0 0.0 0.00 0.00 0.00 74 1018.3
20260508005502 45 0.0 0.0 0.00 0.00 0.00 74 1018.3
20260508004503 45 0.0 0.0 0.00 0.00 0.00 74 1018.2
20260508003503 45 0.0 0.0 0.00 0.00 0.00 73 1018.2
20260508002502 45 0.0 0.0 0.00 0.00 0.00 73 1018.2
20260508001503 46 0.0 0.0 0.00 0.00 0.00 73 1018.3
20260508000503 45 0.0 0.0 0.00 0.00 0.00 73 1018.2
20260507235502 46 0.0 0.0 0.00 0.00 0.00 73 1018.3
20260507234502 46 0.0 0.0 0.00 0.00 0.00 73 1018.2
20260507233502 46 0.0 0.0 0.00 0.00 0.00 73 1018.3
20260507232502 46 0.0 0.0 0.00 0.00 0.00 73 1018.2
20260507231502 46 0.0 0.0 0.00 0.00 0.00 73 1018.1
20260507230502 46 0.0 0.0 0.00 0.00 0.00 73 1018.1
20260507223502 46 0.0 0.0 0.00 0.00 0.00 72 1018.1
20260507220503 46 0.0 0.0 0.00 0.00 0.00 73 1018.1
20260507214503 46 0.0 0.0 0.00 0.00 0.00 73 1018.0
20260507213503 46 0.0 0.0 0.00 0.00 0.00 74 1018.0
20260507205503 46 0.0 0.0 0.00 0.00 0.00 73 1017.7
20260507204505 46 0.0 0.0 0.00 0.00 0.00 73 1017.7
20260507203505 47 0.0 0.0 0.00 0.00 0.00 73 1017.7
20260507202503 47 0.0 0.0 0.00 0.00 0.00 73 1017.6
20260507201505 47 0.0 0.0 0.00 0.00 0.00 73 1017.6
20260507195503 47 0.0 0.0 0.00 0.00 0.00 73 1017.5
20260507194505 47 0.0 0.0 0.00 0.00 0.00 72 1017.4
20260507193503 47 0.0 0.0 0.00 0.00 0.00 72 1017.3
20260507192503 47 0.0 0.0 0.00 0.00 0.00 72 1017.2
20260507191503 47 0.0 0.0 0.00 0.00 0.00 72 1017.3
20260507190504 47 0.0 0.0 0.00 0.00 0.00 72 1017.1
20260507185503 47 0.0 0.0 0.00 0.00 0.00 71 1016.9
20260507182503 48 0.0 0.0 0.00 0.00 0.00 68 1016.3
20260507180503 49 0.0 0.0 0.00 0.00 0.00 69 1016.1
20260507175503 49 0.0 0.0 0.00 0.00 0.00 69 1016.0
20260507174503 49 0.0 0.0 0.00 0.00 0.00 68 1015.9
20260507173503 50 0.0 0.0 0.00 0.00 0.00 67 1015.7
20260507172503 50 0.0 0.0 0.00 0.00 0.00 68 1015.6
20260507171503 50 0.0 0.0 0.00 0.00 0.00 67 1015.4
20260507170503 51 0.0 0.0 0.00 0.00 0.00 67 1015.2
20260507165503 51 0.0 0.0 0.00 0.00 0.00 67 1015.3
20260507164503 51 0.0 0.0 0.00 0.00 0.00 67 1015.2
20260507163503 51 0.0 0.0 0.00 0.00 0.00 68 1015.2
20260507162503 51 0.0 0.0 0.00 0.00 0.00 67 1015.1
20260507161503 52 0.0 0.0 0.00 0.00 0.00 66 1015.1
20260507160503 52 0.0 0.0 0.00 0.00 0.00 66 1015.0
20260507155503 52 0.0 0.0 0.00 0.00 0.00 66 1015.0
20260507153504 52 0.0 0.0 0.00 0.00 0.00 68 1015.1
20260507152503 51 0.0 0.0 0.00 0.00 0.00 69 1015.1
20260507151504 52 0.0 0.0 0.00 0.00 0.00 68 1015.0
20260507143503 52 0.0 0.0 0.00 0.00 0.00 69 1015.1
20260507142503 52 0.0 0.0 0.00 0.00 0.00 69 1015.1
20260507141503 52 0.0 0.0 0.00 0.00 0.00 70 1015.0
20260507140503 52 0.0 0.0 0.00 0.00 0.00 70 1014.9
20260507134504 51 0.0 0.0 0.00 0.00 0.00 73 1015.0
20260507133503 50 0.0 0.0 0.00 0.00 0.00 74 1015.0
20260507132503 50 0.0 0.0 0.00 0.00 0.00 76 1015.0
20260507131503 50 0.0 0.0 0.00 0.00 0.00 76 1015.0
20260507130505 50 0.0 0.0 0.00 0.00 0.00 75 1014.9
20260507125503 50 0.0 0.0 0.00 0.00 0.00 73 1014.9
20260507123503 51 0.0 0.0 0.00 0.00 0.00 70 1014.7
20260507122503 51 0.0 0.0 0.00 0.00 0.00 70 1014.4
20260507120503 51 0.0 0.0 0.00 0.00 0.00 71 1014.4
20260507115503 51 0.0 0.0 0.00 0.00 0.00 74 1014.3
20260507114503 50 0.0 0.0 0.00 0.00 0.00 74 1014.3
20260507112503 50 0.0 0.0 0.00 0.00 0.00 70 1014.0
20260507111504 50 0.0 0.0 0.00 0.00 0.00 70 1014.1
20260507110504 50 0.0 0.0 0.00 0.00 0.00 69 1014.1
20260507105503 50 0.0 0.0 0.00 0.00 0.00 70 1013.9
20260507104504 50 0.0 0.0 0.00 0.00 0.00 70 1013.8
20260507103503 50 0.0 0.0 0.00 0.00 0.00 70 1013.8
20260507101503 49 0.0 0.0 0.00 0.00 0.00 71 1013.4
20260507100504 50 0.0 0.0 0.00 0.00 0.00 72 1013.4
20260507095503 49 0.0 0.0 0.00 0.00 0.00 73 1013.5
20260507094504 49 0.0 0.0 0.00 0.00 0.00 73 1013.3
20260507093503 49 0.0 0.0 0.00 0.00 0.00 74 1013.3
20260507092504 49 0.0 0.0 0.00 0.00 0.00 74 1013.3
20260507091503 48 0.0 0.0 0.00 0.00 0.00 75 1013.1
20260507090503 48 0.0 0.0 0.00 0.00 0.00 75 1013.1
20260507085503 49 0.0 0.0 0.00 0.00 0.00 74 1012.9
20260507084503 49 0.0 0.0 0.00 0.00 0.00 75 1012.8
20260507083503 49 0.0 0.0 0.00 0.00 0.00 75 1012.7
20260507080503 47 0.0 0.0 0.00 0.00 0.00 77 1012.5
20260507074503 47 0.0 0.0 0.00 0.00 0.00 77 1012.0
20260507073503 47 0.0 0.0 0.00 0.00 0.00 77 1011.9
20260507072503 47 0.0 0.0 0.00 0.00 0.00 78 1011.8
20260507063506 47 0.0 0.0 0.00 0.00 0.00 78 1011.4
20260507062503 47 0.0 0.0 0.00 0.00 0.00 78 1011.6
20260507061504 47 0.0 0.0 0.00 0.00 0.00 79 1011.5
20260507060503 47 0.0 0.0 0.00 0.00 0.00 80 1011.5
20260507055503 46 0.0 0.0 0.00 0.00 0.00 81 1011.4
20260507054505 46 0.0 0.0 0.00 0.00 0.00 81 1011.3
20260507053503 46 0.0 0.0 0.00 0.00 0.00 82 1011.2
20260507052503 46 0.0 0.0 0.00 0.00 0.00 82 1011.2
20260507051504 46 0.0 0.0 0.00 0.00 0.00 83 1011.1
20260507050504 46 0.0 0.0 0.00 0.00 0.00 86 1011.0
20260507045503 45 0.0 0.0 0.00 0.00 0.00 89 1010.7
20260507044505 45 0.0 0.0 0.00 0.00 0.00 89 1010.5
20260507043503 45 0.0 0.0 0.00 0.00 0.00 90 1010.6
20260507042503 45 0.0 0.0 0.00 0.00 0.00 90 1010.5
20260507040503 45 0.0 0.0 0.00 0.00 0.00 90 1010.4
20260507035506 45 0.0 0.0 0.00 0.00 0.00 90 1010.2
20260507034505 45 0.0 0.0 0.00 0.00 0.00 90 1010.0